EW2137 Weather Reports


Display with metric or nautical units.
time (UTC)temp
F
wind
direction
speed
MPH
gust
MPH
rain 1hr
in
rain 24hr
in
rain mn
in
humidity
%
barometer
mb
20260906084559 55 196 8.0 10.0 0.00 0.00 0.00 75 1012.8
20260906083058 56 233 1.0 6.0 0.00 0.00 0.00 74 1012.6
20260906081557 56 236 6.0 9.0 0.00 0.00 0.00 74 1012.5
20260906074553 55 206 6.0 7.0 0.00 0.00 0.00 69 1013.0
20260906073054 55 217 6.0 8.0 0.00 0.00 0.00 69 1013.0
20260906071553 55 215 5.0 6.0 0.00 0.00 0.00 67 1013.0
20260906070046 56 214 0.0 0.0 0.00 0.00 0.00 65 1013.1
20260906064550 56 214 0.0 0.0 0.00 0.00 0.00 66 1013.1
20260906063046 56 214 0.0 0.0 0.00 0.00 0.00 66 1013.1
20260906061545 56 214 0.0 2.0 0.00 0.00 0.00 66 1013.1
20260906060045 55 214 0.0 0.0 0.00 0.00 0.00 67 1013.1
20260906054557 56 214 2.0 3.0 0.00 0.00 0.00 66 1013.2
20260906053044 55 214 2.0 3.0 0.00 0.00 0.00 68 1013.3
20260906051603 55 214 4.0 5.0 0.00 0.00 0.00 67 1013.3
20260906050045 57 205 2.0 3.0 0.00 0.00 0.00 63 1013.3
20260906044550 56 119 0.0 2.0 0.00 0.00 0.00 64 1013.5
20260906043045 56 80 1.0 5.0 0.00 0.00 0.00 64 1013.4
20260906041542 56 83 1.0 3.0 0.00 0.00 0.00 62 1013.5
20260906040121 58 61 1.0 3.0 0.00 0.00 0.00 59 1013.5
20260906034540 60 85 2.0 5.0 0.00 0.00 0.00 57 1013.3
20260906033054 60 83 2.0 5.0 0.00 0.00 0.00 57 1013.3
20260906031540 61 101 2.0 3.0 0.00 0.00 0.00 55 1013.1
20260906030039 61 80 2.0 4.0 0.00 0.00 0.00 55 1013.0
20260906024539 62 83 2.0 5.0 0.00 0.00 0.00 52 1012.9
20260906023037 64 56 2.0 5.0 0.00 0.00 0.00 49 1012.8
20260906021538 65 46 4.0 7.0 0.00 0.00 0.00 47 1012.7
20260906020038 66 68 3.0 7.0 0.00 0.00 0.00 45 1012.7
20260906014536 67 69 3.0 5.0 0.00 0.00 0.00 43 1012.9
20260906013035 67 355 2.0 7.0 0.00 0.00 0.00 43 1013.0
20260906011535 68 68 7.0 10.0 0.00 0.00 0.00 43 1012.9
20260906010035 69 360 7.0 11.0 0.00 0.00 0.00 42 1013.0
20260906004534 69 94 6.0 11.0 0.00 0.00 0.00 41 1013.0
20260906003033 69 89 7.0 11.0 0.00 0.00 0.00 42 1013.0
20260906001534 69 52 4.0 9.0 0.00 0.00 0.00 42 1012.9
20260906000031 68 37 8.0 12.0 0.00 0.00 0.00 43 1012.9
20260905234529 69 69 6.0 13.0 0.00 0.00 0.00 42 1012.9
20260905233029 68 44 8.0 10.0 0.00 0.00 0.00 43 1013.0
20260905231528 69 49 4.0 10.0 0.00 0.00 0.00 43 1013.1
20260905230027 69 69 5.0 11.0 0.00 0.00 0.00 44 1013.4
20260905224602 68 49 3.0 13.0 0.00 0.00 0.00 46 1013.3
20260905223024 68 17 5.0 10.0 0.00 0.00 0.00 46 1013.5
20260905221522 68 40 6.0 14.0 0.00 0.00 0.00 46 1013.6
20260905220021 67 61 6.0 12.0 0.00 0.00 0.00 46 1013.6
20260905214518 67 72 7.0 13.0 0.00 0.00 0.00 48 1013.8
20260905213018 66 17 5.0 15.0 0.00 0.00 0.00 50 1013.9
20260905211537 66 53 7.0 12.0 0.00 0.00 0.00 52 1014.2
20260905210023 65 18 2.0 9.0 0.00 0.00 0.00 53 1014.2
20260905204516 65 122 6.0 14.0 0.00 0.00 0.00 51 1014.2
20260905203014 65 44 5.0 14.0 0.00 0.00 0.00 53 1014.3
20260905201513 65 360 4.0 10.0 0.00 0.00 0.00 52 1014.3
20260905200020 63 67 5.0 16.0 0.00 0.00 0.00 53 1014.5
20260905194511 63 61 4.0 14.0 0.00 0.00 0.00 54 1014.6
20260905193010 62 29 6.0 14.0 0.00 0.00 0.00 55 1014.7
20260905191508 62 78 9.0 16.0 0.00 0.00 0.00 57 1014.9
20260905190007 63 73 8.0 15.0 0.00 0.00 0.00 57 1014.9
20260905184515 63 72 10.0 12.0 0.00 0.00 0.00 56 1015.0
20260905183005 62 83 6.0 15.0 0.00 0.00 0.00 56 1015.1
20260905181505 63 90 7.0 13.0 0.00 0.00 0.00 56 1015.1
20260905180005 62 41 3.0 5.0 0.00 0.00 0.00 60 1015.2
20260905174558 60 360 1.0 4.0 0.00 0.00 0.00 64 1015.2
20260905173116 60 22 1.0 5.0 0.00 0.00 0.00 65 1015.1
20260905171556 60 5 3.0 7.0 0.00 0.00 0.00 69 1015.2
20260905170109 60 39 2.0 4.0 0.00 0.00 0.00 67 1015.0
20260905164600 59 335 2.0 4.0 0.00 0.00 0.00 68 1015.1
20260905163050 59 350 1.0 3.0 0.00 0.00 0.00 69 1015.0
20260905161602 57 276 1.0 3.0 0.00 0.00 0.00 72 1015.1
20260905160043 56 198 3.0 4.0 0.00 0.00 0.00 74 1015.1
20260905154545 56 267 2.0 5.0 0.00 0.00 0.00 76 1015.1
20260905153040 55 263 2.0 4.0 0.00 0.00 0.00 79 1015.0
20260905151538 54 250 1.0 4.0 0.00 0.00 0.00 81 1015.2
20260905150038 54 242 3.0 5.0 0.00 0.00 0.00 81 1015.1
20260905144536 53 222 3.0 6.0 0.00 0.00 0.00 81 1015.0
20260905143036 53 223 3.0 5.0 0.00 0.00 0.00 82 1015.1
20260905141533 52 227 2.0 4.0 0.00 0.00 0.00 83 1014.9
20260905140033 52 202 2.0 5.0 0.00 0.00 0.00 84 1014.6
20260905134529 51 234 4.0 9.0 0.00 0.00 0.00 83 1014.4
20260905133034 51 212 5.0 8.0 0.00 0.00 0.00 82 1014.3
20260905131527 52 221 6.0 9.0 0.00 0.00 0.00 80 1014.2
20260905130024 53 238 5.0 7.0 0.00 0.00 0.00 80 1014.0
20260905124523 53 217 2.0 4.0 0.00 0.00 0.00 81 1013.9
20260905123023 53 219 0.0 2.0 0.00 0.00 0.00 82 1013.9
20260905121521 53 132 1.0 3.0 0.00 0.00 0.00 82 1014.0
20260905120021 53 243 1.0 4.0 0.00 0.00 0.00 82 1014.0
20260905114520 52 221 0.0 5.0 0.00 0.00 0.00 83 1014.0
20260905113019 53 225 6.0 8.0 0.00 0.00 0.00 82 1014.0
20260905111520 53 238 5.0 9.0 0.00 0.00 0.00 82 1013.9
20260905110017 53 229 6.0 9.0 0.00 0.00 0.00 81 1013.9
20260905104516 53 226 5.0 9.0 0.00 0.00 0.00 80 1013.9
20260905103017 53 220 6.0 9.0 0.00 0.00 0.00 80 1013.9
20260905101515 53 234 8.0 11.0 0.00 0.00 0.00 78 1013.8
20260905100031 54 232 7.0 10.0 0.00 0.00 0.00 77 1013.9
20260905094518 53 217 8.0 10.0 0.00 0.00 0.00 77 1013.9
20260905093014 53 219 7.0 9.0 0.00 0.00 0.00 77 1013.9
20260905091513 53 209 7.0 9.0 0.00 0.00 0.00 78 1013.9
20260905090011 53 221 5.0 7.0 0.00 0.00 0.00 78 1013.8